Torna al catalogo

COMETS

AttivoComunicazioniHEO
NORAD 25175·PAYLOAD·🇯🇵 Japan

Lanciato Feb 21, 1998 da Tanegashima Space Center

Loading…

Prossimi Passaggi (prossime 24 ore)

TLE

AggiornatoSource: Space-Track

Epoca: Sep 12, 2026, 21:29 UTC

1 25175U 98011A   26255.89555625 -.00000011  00000-0  00000+0 0  9996
2 25175  30.0747 136.8695 5289018 157.2241 239.3641  4.38915369466716

Traccia COMETS in tempo reale con AllMySat

Download on the App Store